PAY1192 KSEA-KSMF

Flight info

Callsign PAY1192
Flight time 1h 7m
Altitude 35000
Route SUMMA2 SUMMA JINMO LMT TUDOR2
Aircraft C750/M-SBDE3FGHRWXY/S

Departure

Time 2026-05-05 21:02
Airport Seattle–Tacoma International Airport (KSEA)

Arrival

Time 2026-05-05 22:09
Airport Sacramento International Airport (KSMF)
Time Latitude Longitude Altitude Speed Heading
2026-05-05 20:30 47.43835 -122.31522 356 ft 0 kts
2026-05-05 20:55 47.43837 -122.31522 357 ft 0 kts
2026-05-05 20:55 47.43844 -122.31522 357 ft 1 kts 360°
2026-05-05 20:56 47.43867 -122.31509 359 ft 4 kts 44°
2026-05-05 20:56 47.43882 -122.31456 360 ft 8 kts 78°
2026-05-05 20:56 47.43932 -122.31391 362 ft 11 kts 26°
2026-05-05 20:56 47.44023 -122.31364 365 ft 15 kts
2026-05-05 20:57 47.44148 -122.31360 367 ft 20 kts
2026-05-05 20:57 47.44311 -122.31359 369 ft 25 kts
2026-05-05 20:57 47.44488 -122.31357 378 ft 25 kts
2026-05-05 20:57 47.44663 -122.31356 388 ft 26 kts
2026-05-05 20:58 47.44844 -122.31355 401 ft 25 kts
2026-05-05 20:58 47.45030 -122.31356 410 ft 27 kts
2026-05-05 20:58 47.45237 -122.31349 413 ft 32 kts
2026-05-05 20:58 47.45460 -122.31344 408 ft 26 kts 358°
2026-05-05 20:59 47.45506 -122.31292 414 ft 5 kts 87°
2026-05-05 20:59 47.45506 -122.31281 416 ft 0 kts 91°
2026-05-05 20:59 47.45505 -122.31240 421 ft 5 kts 91°
2026-05-05 20:59 47.45505 -122.31208 425 ft 0 kts 90°
2026-05-05 21:00 47.45505 -122.31211 425 ft 0 kts 89°
2026-05-05 21:01 47.45505 -122.31154 429 ft 9 kts 98°
2026-05-05 21:01 47.45456 -122.31112 429 ft 10 kts 179°
2026-05-05 21:01 47.45084 -122.31112 413 ft 111 kts 180°
2026-05-05 21:01 47.44030 -122.31117 758 ft 178 kts 180°
2026-05-05 21:02 47.42681 -122.31059 1593 ft 216 kts 179°
2026-05-05 21:02 47.41076 -122.30700 2422 ft 256 kts 158°
2026-05-05 21:02 47.39801 -122.28841 3736 ft 274 kts 116°
2026-05-05 21:02 47.39551 -122.26128 5279 ft 279 kts 80°
2026-05-05 21:03 47.40368 -122.23614 6703 ft 282 kts 54°
2026-05-05 21:03 47.41337 -122.21122 7977 ft 288 kts 67°
2026-05-05 21:03 47.41922 -122.18310 9110 ft 294 kts 79°
2026-05-05 21:03 47.42109 -122.15316 10218 ft 300 kts 91°
2026-05-05 21:04 47.41595 -122.12311 10924 ft 321 kts 115°
2026-05-05 21:04 47.40076 -122.09663 11091 ft 359 kts 144°
2026-05-05 21:04 47.37708 -122.08271 11909 ft 373 kts 172°
2026-05-05 21:04 47.35136 -122.08523 12988 ft 376 kts 194°
2026-05-05 21:05 47.32611 -122.09497 14052 ft 380 kts 195°
2026-05-05 21:05 47.30048 -122.10474 15020 ft 387 kts 195°
2026-05-05 21:05 47.27430 -122.11490 15961 ft 393 kts 195°
2026-05-05 21:05 47.24768 -122.12521 16780 ft 402 kts 195°
2026-05-05 21:06 47.22048 -122.13576 17526 ft 411 kts 195°
2026-05-05 21:06 47.19264 -122.14654 18248 ft 420 kts 195°
2026-05-05 21:06 47.16411 -122.15759 18955 ft 429 kts 195°
2026-05-05 21:06 47.13514 -122.16879 19670 ft 436 kts 195°
2026-05-05 21:07 47.10554 -122.17931 20377 ft 442 kts 189°
2026-05-05 21:07 47.07496 -122.17739 21034 ft 446 kts 165°
2026-05-05 21:07 47.04643 -122.16012 21712 ft 448 kts 152°
2026-05-05 21:07 47.01639 -122.14723 22341 ft 457 kts 169°
2026-05-05 21:08 46.98582 -122.13524 22991 ft 459 kts 160°
2026-05-05 21:08 46.95493 -122.12272 23616 ft 465 kts 164°
2026-05-05 21:08 46.92374 -122.11025 24234 ft 469 kts 163°
2026-05-05 21:08 46.89217 -122.09770 24850 ft 473 kts 163°
2026-05-05 21:09 46.86034 -122.08495 25444 ft 477 kts 163°
2026-05-05 21:09 46.82813 -122.07206 26027 ft 481 kts 163°
2026-05-05 21:09 46.79580 -122.05913 26593 ft 485 kts 163°
2026-05-05 21:09 46.76318 -122.04611 27151 ft 488 kts 163°
2026-05-05 21:10 46.73030 -122.03299 27704 ft 491 kts 163°
2026-05-05 21:10 46.69707 -122.01975 28250 ft 494 kts 163°
2026-05-05 21:10 46.66368 -122.00762 28764 ft 497 kts 168°
2026-05-05 21:10 46.62936 -122.00097 29273 ft 501 kts 175°
2026-05-05 21:11 46.59451 -122.00015 29773 ft 504 kts 182°
2026-05-05 21:11 46.55956 -122.00499 30267 ft 507 kts 189°
2026-05-05 21:11 46.52476 -122.01600 30757 ft 508 kts 197°
2026-05-05 21:11 46.49102 -122.03296 31200 ft 509 kts 204°
2026-05-05 21:12 46.45909 -122.05541 31625 ft 510 kts 211°
2026-05-05 21:12 46.42923 -122.08295 32043 ft 511 kts 217°
2026-05-05 21:12 46.39894 -122.10996 32446 ft 517 kts 210°
2026-05-05 21:12 46.36602 -122.13125 32800 ft 522 kts 202°
2026-05-05 21:13 46.33109 -122.14662 33136 ft 528 kts 194°
2026-05-05 21:13 46.29488 -122.15571 33460 ft 532 kts 187°
2026-05-05 21:13 46.25772 -122.15837 33772 ft 536 kts 179°
2026-05-05 21:13 46.22048 -122.15445 34075 ft 539 kts 172°
2026-05-05 21:14 46.18369 -122.14401 34407 ft 540 kts 164°
2026-05-05 21:14 46.14794 -122.12721 34728 ft 541 kts 156°
2026-05-05 21:14 46.07689 -122.08737 34795 ft 558 kts 162°
2026-05-05 21:15 45.99995 -122.06824 34688 ft 564 kts 175°
2026-05-05 21:15 45.92209 -122.07294 34721 ft 558 kts 187°
2026-05-05 21:16 45.84427 -122.07392 34858 ft 554 kts 173°
2026-05-05 21:16 45.76697 -122.06466 35031 ft 554 kts 175°
2026-05-05 21:17 45.68966 -122.05693 35126 ft 556 kts 175°
2026-05-05 21:17 45.61234 -122.04930 35127 ft 558 kts 175°
2026-05-05 21:18 45.53474 -122.04165 35110 ft 558 kts 175°
2026-05-05 21:18 45.45719 -122.03403 35103 ft 558 kts 175°
2026-05-05 21:19 45.37969 -122.02643 34911 ft 561 kts 175°
2026-05-05 21:19 45.34072 -122.02262 34694 ft 563 kts 175°
2026-05-05 21:19 45.30160 -122.01881 34370 ft 566 kts 175°
2026-05-05 21:20 45.26231 -122.01498 34154 ft 564 kts 175°
2026-05-05 21:20 45.22311 -122.01117 34056 ft 562 kts 175°
2026-05-05 21:20 45.14525 -122.00360 34066 ft 558 kts 175°
2026-05-05 21:21 45.06768 -121.99607 34130 ft 557 kts 175°
2026-05-05 21:21 45.02885 -121.99232 34238 ft 555 kts 175°
2026-05-05 21:21 44.99035 -121.98861 34401 ft 556 kts 175°
2026-05-05 21:22 44.91243 -121.98110 34249 ft 563 kts 175°
2026-05-05 21:22 44.83359 -121.97352 34115 ft 563 kts 175°
2026-05-05 21:23 44.75535 -121.96602 34048 ft 562 kts 175°
2026-05-05 21:23 44.67746 -121.95858 34258 ft 557 kts 175°
2026-05-05 21:24 44.63880 -121.95488 34514 ft 554 kts 174°
2026-05-05 21:24 44.60022 -121.95120 34761 ft 552 kts 174°
2026-05-05 21:24 44.56185 -121.94755 35011 ft 551 kts 174°
2026-05-05 21:24 44.52349 -121.94390 35097 ft 556 kts 174°
2026-05-05 21:25 44.44574 -121.93652 35088 ft 562 kts 174°
2026-05-05 21:25 44.36760 -121.92914 35007 ft 561 kts 174°
2026-05-05 21:26 44.28983 -121.92181 35045 ft 560 kts 174°
2026-05-05 21:26 44.21216 -121.91449 35103 ft 559 kts 174°
2026-05-05 21:27 44.13448 -121.90719 35103 ft 560 kts 174°
2026-05-05 21:27 44.05666 -121.89992 35107 ft 559 kts 174°
2026-05-05 21:28 43.97906 -121.89268 35123 ft 559 kts 174°
2026-05-05 21:28 43.90127 -121.88543 35126 ft 559 kts 174°
2026-05-05 21:29 43.82304 -121.87816 35118 ft 559 kts 174°
2026-05-05 21:29 43.74544 -121.87098 35116 ft 559 kts 174°
2026-05-05 21:30 43.66802 -121.86382 35120 ft 559 kts 174°
2026-05-05 21:30 43.59044 -121.85668 35122 ft 559 kts 174°
2026-05-05 21:31 43.51270 -121.84954 35120 ft 559 kts 174°
2026-05-05 21:31 43.43492 -121.84241 35121 ft 559 kts 174°
2026-05-05 21:32 43.35723 -121.83531 35125 ft 560 kts 174°
2026-05-05 21:32 43.27952 -121.82822 35131 ft 560 kts 174°
2026-05-05 21:33 43.20173 -121.82115 35129 ft 561 kts 174°
2026-05-05 21:33 43.12368 -121.81407 35117 ft 561 kts 174°
2026-05-05 21:34 43.04575 -121.80702 35105 ft 562 kts 174°
2026-05-05 21:34 42.96780 -121.79998 35093 ft 562 kts 174°
2026-05-05 21:35 42.88975 -121.79295 35083 ft 563 kts 174°
2026-05-05 21:35 42.81104 -121.78588 35067 ft 563 kts 174°
2026-05-05 21:36 42.73304 -121.77889 35059 ft 563 kts 173°
2026-05-05 21:36 42.65488 -121.77191 35055 ft 563 kts 173°
2026-05-05 21:37 42.57675 -121.76494 35051 ft 563 kts 173°
2026-05-05 21:37 42.49863 -121.75800 35048 ft 563 kts 173°
2026-05-05 21:38 42.42042 -121.75106 35044 ft 563 kts 173°
2026-05-05 21:38 42.34227 -121.74414 35040 ft 563 kts 173°
2026-05-05 21:39 42.26408 -121.73725 35037 ft 563 kts 173°
2026-05-05 21:39 42.18585 -121.73036 35029 ft 563 kts 173°
2026-05-05 21:40 42.10746 -121.72543 35020 ft 564 kts 175°
2026-05-05 21:40 42.02900 -121.72210 35011 ft 564 kts 175°
2026-05-05 21:41 41.95064 -121.71872 35011 ft 564 kts 175°
2026-05-05 21:41 41.87158 -121.71531 35014 ft 563 kts 175°
2026-05-05 21:42 41.79295 -121.71193 35025 ft 563 kts 175°
2026-05-05 21:42 41.71457 -121.70857 35040 ft 563 kts 175°
2026-05-05 21:43 41.63612 -121.70521 35062 ft 563 kts 175°
2026-05-05 21:43 41.55768 -121.70187 35090 ft 563 kts 175°
2026-05-05 21:44 41.47931 -121.69853 35117 ft 563 kts 175°
2026-05-05 21:44 41.40092 -121.69520 35100 ft 564 kts 175°
2026-05-05 21:45 41.32242 -121.69188 35081 ft 564 kts 175°
2026-05-05 21:45 41.24392 -121.68856 35064 ft 565 kts 175°
2026-05-05 21:46 41.16534 -121.68525 35046 ft 565 kts 175°
2026-05-05 21:46 41.08674 -121.68195 35026 ft 565 kts 174°
2026-05-05 21:47 41.00816 -121.67865 34996 ft 565 kts 174°
2026-05-05 21:47 40.92957 -121.67537 35016 ft 564 kts 174°
2026-05-05 21:48 40.85049 -121.67207 35069 ft 564 kts 174°
2026-05-05 21:48 40.77199 -121.66879 35147 ft 563 kts 174°
2026-05-05 21:49 40.69357 -121.66552 35193 ft 564 kts 174°
2026-05-05 21:49 40.61509 -121.66228 35200 ft 564 kts 174°
2026-05-05 21:50 40.53662 -121.65903 35208 ft 564 kts 174°
2026-05-05 21:50 40.45808 -121.65579 35199 ft 564 kts 174°
2026-05-05 21:51 40.37960 -121.65255 35150 ft 564 kts 173°
2026-05-05 21:51 40.30139 -121.64936 35148 ft 551 kts 173°
2026-05-05 21:52 40.22785 -121.64641 35008 ft 511 kts 173°
2026-05-05 21:52 40.19228 -121.64491 34381 ft 511 kts 173°
2026-05-05 21:52 40.15662 -121.64339 33759 ft 517 kts 173°
2026-05-05 21:53 40.12044 -121.64190 33132 ft 522 kts 173°
2026-05-05 21:53 40.08408 -121.64042 32499 ft 526 kts 173°
2026-05-05 21:53 40.04763 -121.63895 31695 ft 523 kts 173°
2026-05-05 21:53 40.01142 -121.63747 30829 ft 519 kts 173°
2026-05-05 21:54 39.97546 -121.63601 29993 ft 516 kts 173°
2026-05-05 21:54 39.93972 -121.63456 29198 ft 512 kts 173°
2026-05-05 21:54 39.90424 -121.63313 28387 ft 509 kts 173°
2026-05-05 21:54 39.86868 -121.63167 27559 ft 505 kts 173°
2026-05-05 21:55 39.83332 -121.63025 26730 ft 501 kts 173°
2026-05-05 21:55 39.79867 -121.62885 25912 ft 497 kts 173°
2026-05-05 21:55 39.76431 -121.62746 25087 ft 493 kts 173°
2026-05-05 21:55 39.73042 -121.62609 24226 ft 483 kts 173°
2026-05-05 21:56 39.69723 -121.62476 23384 ft 473 kts 173°
2026-05-05 21:56 39.66467 -121.62345 22554 ft 464 kts 173°
2026-05-05 21:56 39.63264 -121.62215 21749 ft 457 kts 173°
2026-05-05 21:56 39.60128 -121.62088 20964 ft 446 kts 173°
2026-05-05 21:57 39.57115 -121.61971 20166 ft 423 kts 173°
2026-05-05 21:57 39.54252 -121.61857 19374 ft 404 kts 173°
2026-05-05 21:57 39.51499 -121.61745 18596 ft 390 kts 173°
2026-05-05 21:57 39.48781 -121.61630 17833 ft 388 kts 173°
2026-05-05 21:58 39.46108 -121.61522 17130 ft 381 kts 174°
2026-05-05 21:58 39.43484 -121.61416 16487 ft 377 kts 174°
2026-05-05 21:58 39.40882 -121.61311 15865 ft 372 kts 174°
2026-05-05 21:58 39.38318 -121.61209 15254 ft 364 kts 174°
2026-05-05 21:59 39.35844 -121.61113 14643 ft 349 kts 174°
2026-05-05 21:59 39.33472 -121.61019 14056 ft 335 kts 174°
2026-05-05 21:59 39.31183 -121.60927 13483 ft 325 kts 174°
2026-05-05 21:59 39.28929 -121.60834 12917 ft 323 kts 175°
2026-05-05 22:00 39.26701 -121.60743 12343 ft 319 kts 175°
2026-05-05 22:00 39.24499 -121.60655 11759 ft 316 kts 175°
2026-05-05 22:00 39.22315 -121.60567 11165 ft 313 kts 175°
2026-05-05 22:00 39.20149 -121.60482 10560 ft 311 kts 176°
2026-05-05 22:01 39.17999 -121.60398 10116 ft 302 kts 176°
2026-05-05 22:01 39.15970 -121.60324 10052 ft 283 kts 176°
2026-05-05 22:01 39.14013 -121.60246 9976 ft 277 kts 176°
2026-05-05 22:01 39.12062 -121.60167 9409 ft 287 kts 176°
2026-05-05 22:02 39.10036 -121.60080 8755 ft 296 kts 176°
2026-05-05 22:02 39.07948 -121.60043 8058 ft 303 kts 179°
2026-05-05 22:02 39.05826 -121.60016 7370 ft 306 kts 174°
2026-05-05 22:02 39.03760 -121.59776 6885 ft 292 kts 176°
2026-05-05 22:03 39.01798 -121.59690 6385 ft 273 kts 178°
2026-05-05 22:03 38.99960 -121.59657 5963 ft 256 kts 179°
2026-05-05 22:03 38.98234 -121.59657 5578 ft 241 kts 180°
2026-05-05 22:03 38.96589 -121.59671 5249 ft 233 kts 180°
2026-05-05 22:04 38.94968 -121.59692 4909 ft 230 kts 180°
2026-05-05 22:04 38.93387 -121.59716 4573 ft 226 kts 180°
2026-05-05 22:04 38.91814 -121.59742 4249 ft 224 kts 180°
2026-05-05 22:04 38.90260 -121.59768 3929 ft 223 kts 180°
2026-05-05 22:05 38.88701 -121.59795 3611 ft 221 kts 180°
2026-05-05 22:05 38.87157 -121.59822 3298 ft 219 kts 180°
2026-05-05 22:05 38.85617 -121.59848 2984 ft 217 kts 180°
2026-05-05 22:05 38.84137 -121.59873 2679 ft 205 kts 181°
2026-05-05 22:06 38.82749 -121.59896 2422 ft 194 kts 181°
2026-05-05 22:06 38.81414 -121.59919 2148 ft 188 kts 181°
2026-05-05 22:06 38.80120 -121.59943 1891 ft 182 kts 181°
2026-05-05 22:06 38.78897 -121.59964 1668 ft 171 kts 181°
2026-05-05 22:07 38.77766 -121.59983 1412 ft 155 kts 181°
2026-05-05 22:07 38.76718 -121.60001 1198 ft 145 kts 181°
2026-05-05 22:07 38.75732 -121.60020 1043 ft 139 kts 182°
2026-05-05 22:07 38.74770 -121.60040 851 ft 136 kts 181°
2026-05-05 22:08 38.73822 -121.60056 666 ft 134 kts 181°
2026-05-05 22:08 38.72894 -121.60074 486 ft 132 kts 182°
2026-05-05 22:08 38.71978 -121.60086 314 ft 131 kts 181°
2026-05-05 22:08 38.71065 -121.60105 138 ft 131 kts 182°
2026-05-05 22:09 38.70167 -121.60118 34 ft 121 kts 182°
2026-05-05 22:09 38.69455 -121.60138 25 ft 80 kts 181°
2026-05-05 22:09 38.69049 -121.60143 25 ft 29 kts 178°
2026-05-05 22:09 38.68828 -121.60145 24 ft 34 kts 180°
2026-05-05 22:10 38.68601 -121.60148 24 ft 25 kts 180°
2026-05-05 22:10 38.68442 -121.60135 24 ft 20 kts 156°
2026-05-05 22:10 38.68383 -121.60012 23 ft 19 kts 92°
2026-05-05 22:10 38.68377 -121.59858 24 ft 12 kts 117°
2026-05-05 22:11 38.68269 -121.59834 23 ft 20 kts 179°
2026-05-05 22:11 38.68131 -121.59836 23 ft 12 kts 176°
2026-05-05 22:11 38.68080 -121.59788 23 ft 10 kts 94°
2026-05-05 22:11 38.68080 -121.59726 23 ft 4 kts 72°
2026-05-05 22:12 38.68088 -121.59717 23 ft 0 kts 13°